Time,TemperatureF,DewpointF,PressureIn,WindDirection,WindDirectionDegrees,WindSpeedMPH,WindSpeedGustMPH,Humidity,HourlyPrecipIn,Conditions,Clouds,dailyrainin,SoftwareType,DateUTC
2013-03-24 00:02:00,34.9,21.9,30.00,SW,219,0.0,3.0,59,0.00,,,0.00,meteohub,2013-03-24 04:02:00,
2013-03-24 00:05:00,34.9,21.9,30.01,SW,217,1.0,3.0,59,0.00,,,0.00,meteohub,2013-03-24 04:05:00,
2013-03-24 00:11:00,34.5,21.7,30.01,WNW,282,1.0,3.0,59,0.00,,,0.00,meteohub,2013-03-24 04:11:00,
2013-03-24 00:17:00,34.3,21.9,30.01,West,276,0.0,3.0,60,0.00,,,0.00,meteohub,2013-03-24 04:17:00,
2013-03-24 00:22:00,34.2,21.7,30.00,WSW,245,0.0,2.0,60,0.00,,,0.00,meteohub,2013-03-24 04:22:00,
2013-03-24 00:27:00,34.0,21.6,30.00,SW,234,0.0,2.0,60,0.00,,,0.00,meteohub,2013-03-24 04:27:00,
2013-03-24 00:32:00,33.8,21.7,30.00,SW,228,0.0,3.0,61,0.00,,,0.00,meteohub,2013-03-24 04:32:00,
2013-03-24 00:37:00,33.6,21.6,30.00,South,169,0.0,3.0,61,0.00,,,0.00,meteohub,2013-03-24 04:37:00,
2013-03-24 00:44:00,33.4,21.4,30.00,SW,232,1.0,3.0,61,0.00,,,0.00,meteohub,2013-03-24 04:44:00,
2013-03-24 00:50:00,33.3,21.2,30.00,NW,312,0.0,4.0,61,0.00,,,0.00,meteohub,2013-03-24 04:50:00,
2013-03-24 00:56:00,33.1,21.6,30.00,WNW,292,0.0,3.0,62,0.00,,,0.00,meteohub,2013-03-24 04:56:00,
2013-03-24 01:02:00,32.9,21.4,30.01,WSW,253,0.0,2.0,62,0.00,,,0.00,meteohub,2013-03-24 05:02:00,
2013-03-24 01:07:00,32.5,21.0,30.01,WSW,253,0.0,1.0,62,0.00,,,0.00,meteohub,2013-03-24 05:07:00,
2013-03-24 01:12:00,32.4,21.2,30.00,WSW,252,0.0,1.0,63,0.00,,,0.00,meteohub,2013-03-24 05:12:00,
2013-03-24 01:17:00,32.0,21.2,29.99,West,260,0.0,1.0,64,0.00,,,0.00,meteohub,2013-03-24 05:17:00,
2013-03-24 01:22:00,31.8,21.0,29.99,WSW,246,0.0,1.0,64,0.00,,,0.00,meteohub,2013-03-24 05:22:00,
2013-03-24 01:30:00,32.0,21.2,29.99,SW,234,0.0,2.0,64,0.00,,,0.00,meteohub,2013-03-24 05:30:00,
2013-03-24 01:36:00,31.8,20.7,29.99,SSW,196,1.0,3.0,63,0.00,,,0.00,meteohub,2013-03-24 05:36:00,
2013-03-24 01:42:00,31.8,21.0,30.00,WSW,244,0.0,3.0,64,0.00,,,0.00,meteohub,2013-03-24 05:42:00,
2013-03-24 01:48:00,31.6,20.5,30.01,WSW,244,0.0,3.0,63,0.00,,,0.00,meteohub,2013-03-24 05:48:00,
2013-03-24 01:54:00,31.5,20.7,30.00,WSW,242,0.0,2.0,64,0.00,,,0.00,meteohub,2013-03-24 05:54:00,
2013-03-24 02:00:00,31.5,20.7,29.99,WSW,242,0.0,1.0,64,0.00,,,0.00,meteohub,2013-03-24 06:00:00,
2013-03-24 02:06:00,31.5,20.7,30.00,WSW,240,0.0,1.0,64,0.00,,,0.00,meteohub,2013-03-24 06:06:00,
2013-03-24 02:12:00,31.5,20.7,30.00,WSW,240,0.0,1.0,64,0.00,,,0.00,meteohub,2013-03-24 06:12:00,
2013-03-24 02:17:00,31.3,20.5,29.99,WSW,240,0.0,1.0,64,0.00,,,0.00,meteohub,2013-03-24 06:17:00,
2013-03-24 02:24:00,30.9,20.1,30.00,WSW,240,0.0,1.0,64,0.00,,,0.00,meteohub,2013-03-24 06:24:00,
2013-03-24 02:31:00,30.7,20.3,29.99,WSW,240,0.0,1.0,65,0.00,,,0.00,meteohub,2013-03-24 06:31:00,
2013-03-24 02:37:00,30.4,19.9,29.99,WSW,240,0.0,0.0,65,0.00,,,0.00,meteohub,2013-03-24 06:37:00,
2013-03-24 02:42:00,30.2,20.3,29.99,WSW,240,0.0,0.0,66,0.00,,,0.00,meteohub,2013-03-24 06:42:00,
2013-03-24 02:49:00,30.0,20.5,29.99,WSW,240,0.0,0.0,67,0.00,,,0.00,meteohub,2013-03-24 06:49:00,
2013-03-24 02:55:00,29.7,20.1,29.99,SW,226,0.0,1.0,67,0.00,,,0.00,meteohub,2013-03-24 06:55:00,
2013-03-24 03:01:00,29.1,19.6,29.99,SW,226,0.0,1.0,67,0.00,,,0.00,meteohub,2013-03-24 07:01:00,
2013-03-24 03:07:00,29.1,19.6,29.99,SW,226,0.0,1.0,67,0.00,,,0.00,meteohub,2013-03-24 07:07:00,
2013-03-24 03:12:00,29.1,19.6,29.99,SW,226,0.0,1.0,67,0.00,,,0.00,meteohub,2013-03-24 07:12:00,
2013-03-24 03:17:00,29.1,19.9,29.99,SW,226,0.0,1.0,68,0.00,,,0.00,meteohub,2013-03-24 07:17:00,
2013-03-24 03:22:00,29.1,19.6,29.99,SW,226,0.0,0.0,67,0.00,,,0.00,meteohub,2013-03-24 07:22:00,
2013-03-24 03:27:00,29.1,19.9,29.99,SW,226,0.0,0.0,68,0.00,,,0.00,meteohub,2013-03-24 07:27:00,
2013-03-24 03:34:00,28.9,19.8,29.99,East,96,0.0,0.0,68,0.00,,,0.00,meteohub,2013-03-24 07:34:00,
2013-03-24 03:40:00,28.8,19.6,29.99,East,98,0.0,1.0,68,0.00,,,0.00,meteohub,2013-03-24 07:40:00,
2013-03-24 03:46:00,28.8,19.6,29.99,East,98,0.0,1.0,68,0.00,,,0.00,meteohub,2013-03-24 07:46:00,
2013-03-24 03:52:00,28.9,19.8,29.99,East,98,0.0,1.0,68,0.00,,,0.00,meteohub,2013-03-24 07:52:00,
2013-03-24 03:57:00,28.9,19.4,29.99,East,98,0.0,1.0,67,0.00,,,0.00,meteohub,2013-03-24 07:57:00,
2013-03-24 04:02:00,28.8,19.6,29.99,East,99,0.0,1.0,68,0.00,,,0.00,meteohub,2013-03-24 08:02:00,
2013-03-24 04:07:00,28.6,19.8,29.99,SE,132,2.0,2.0,69,0.00,,,0.00,meteohub,2013-03-24 08:07:00,
2013-03-24 04:12:00,28.4,19.6,29.99,ESE,115,1.0,2.0,69,0.00,,,0.00,meteohub,2013-03-24 08:12:00,
2013-03-24 04:19:00,28.2,19.4,29.99,ESE,115,0.0,2.0,69,0.00,,,0.00,meteohub,2013-03-24 08:19:00,
2013-03-24 04:26:00,28.6,20.1,29.99,ESE,115,0.0,2.0,70,0.00,,,0.00,meteohub,2013-03-24 08:26:00,
2013-03-24 04:32:00,28.2,19.4,30.00,SE,134,0.0,0.0,69,0.00,,,0.00,meteohub,2013-03-24 08:32:00,
2013-03-24 04:37:00,28.0,19.6,30.01,SE,139,1.0,1.0,70,0.00,,,0.00,meteohub,2013-03-24 08:37:00,
2013-03-24 04:42:00,28.0,19.2,30.01,SE,139,0.0,2.0,69,0.00,,,0.00,meteohub,2013-03-24 08:42:00,
2013-03-24 04:47:00,28.0,19.2,30.01,SE,139,0.0,2.0,69,0.00,,,0.00,meteohub,2013-03-24 08:47:00,
2013-03-24 04:52:00,28.0,19.6,30.01,SE,139,0.0,2.0,70,0.00,,,0.00,meteohub,2013-03-24 08:52:00,
2013-03-24 04:57:00,28.0,19.6,30.01,SE,139,0.0,0.0,70,0.00,,,0.00,meteohub,2013-03-24 08:57:00,
2013-03-24 05:02:00,28.0,19.6,30.01,SE,139,0.0,0.0,70,0.00,,,0.00,meteohub,2013-03-24 09:02:00,
2013-03-24 05:07:00,27.9,19.8,30.01,SE,138,0.0,0.0,71,0.00,,,0.00,meteohub,2013-03-24 09:07:00,
2013-03-24 05:14:00,27.9,19.8,30.00,SE,138,0.0,0.0,71,0.00,,,0.00,meteohub,2013-03-24 09:14:00,
2013-03-24 05:20:00,27.9,19.8,29.99,SE,138,0.0,0.0,71,0.00,,,0.00,meteohub,2013-03-24 09:20:00,
2013-03-24 05:26:00,27.9,19.8,29.98,SE,138,0.0,0.0,71,0.00,,,0.00,meteohub,2013-03-24 09:26:00,
2013-03-24 05:32:00,27.9,19.4,29.98,SE,142,0.0,0.0,70,0.00,,,0.00,meteohub,2013-03-24 09:32:00,
2013-03-24 05:38:00,28.0,19.6,29.97,SE,142,0.0,0.0,70,0.00,,,0.00,meteohub,2013-03-24 09:38:00,
2013-03-24 05:45:00,28.0,19.9,29.98,SE,142,0.0,0.0,71,0.00,,,0.00,meteohub,2013-03-24 09:45:00,
2013-03-24 05:51:00,28.2,19.8,29.98,SE,142,0.0,0.0,70,0.00,,,0.00,meteohub,2013-03-24 09:51:00,
2013-03-24 05:57:00,28.2,20.1,29.98,SE,142,0.0,0.0,71,0.00,,,0.00,meteohub,2013-03-24 09:57:00,
2013-03-24 06:02:00,28.2,20.1,29.97,SE,142,0.0,0.0,71,0.00,,,0.00,meteohub,2013-03-24 10:02:00,
2013-03-24 06:07:00,28.2,20.3,29.97,SE,143,0.0,0.0,72,0.00,,,0.00,meteohub,2013-03-24 10:07:00,
2013-03-24 06:12:00,28.0,19.9,29.97,SE,143,0.0,0.0,71,0.00,,,0.00,meteohub,2013-03-24 10:12:00,
2013-03-24 06:18:00,27.9,19.9,29.97,NNW,335,1.0,0.0,72,0.00,,,0.00,meteohub,2013-03-24 10:18:00,
2013-03-24 06:24:00,27.1,19.6,29.98,NNW,335,1.0,3.0,73,0.00,,,0.00,meteohub,2013-03-24 10:24:00,
2013-03-24 06:30:00,26.8,19.6,29.98,NNW,335,0.0,3.0,74,0.00,,,0.00,meteohub,2013-03-24 10:30:00,
2013-03-24 06:36:00,26.6,19.8,29.98,NNW,335,0.0,2.0,75,0.00,,,0.00,meteohub,2013-03-24 10:36:00,
2013-03-24 06:42:00,26.4,19.6,29.98,NNW,343,0.0,1.0,75,0.00,,,0.00,meteohub,2013-03-24 10:42:00,
2013-03-24 06:47:00,26.2,19.8,29.98,NNW,343,0.0,1.0,76,0.00,,,0.00,meteohub,2013-03-24 10:47:00,
2013-03-24 06:52:00,26.2,19.8,29.98,North,349,0.0,1.0,76,0.00,,,0.00,meteohub,2013-03-24 10:52:00,
2013-03-24 06:58:00,26.4,19.9,29.99,North,349,0.0,0.0,76,0.00,,,0.00,meteohub,2013-03-24 10:58:00,
2013-03-24 07:04:00,26.4,19.6,29.99,North,349,0.0,0.0,75,0.00,,,0.00,meteohub,2013-03-24 11:04:00,
2013-03-24 07:10:00,26.4,19.6,29.98,North,349,0.0,0.0,75,0.00,,,0.00,meteohub,2013-03-24 11:10:00,
2013-03-24 07:16:00,26.4,19.6,29.98,North,349,0.0,0.0,75,0.00,,,0.00,meteohub,2013-03-24 11:16:00,
2013-03-24 07:22:00,26.6,19.8,29.98,North,349,0.0,0.0,75,0.00,,,0.00,meteohub,2013-03-24 11:22:00,
2013-03-24 07:27:00,26.6,19.8,29.98,North,349,0.0,0.0,75,0.00,,,0.00,meteohub,2013-03-24 11:27:00,
2013-03-24 07:34:00,26.4,19.9,29.99,North,349,0.0,0.0,76,0.00,,,0.00,meteohub,2013-03-24 11:34:00,
2013-03-24 07:40:00,26.4,20.1,29.99,North,349,0.0,0.0,77,0.00,,,0.00,meteohub,2013-03-24 11:40:00,
2013-03-24 07:47:00,26.2,19.9,29.99,North,349,1.0,0.0,77,0.00,,,0.00,meteohub,2013-03-24 11:47:00,
2013-03-24 07:52:00,26.2,20.8,29.99,North,349,0.0,1.0,80,0.00,,,0.00,meteohub,2013-03-24 11:52:00,
2013-03-24 07:59:00,26.2,20.7,29.99,North,355,0.0,1.0,79,0.00,,,0.00,meteohub,2013-03-24 11:59:00,
2013-03-24 08:05:00,26.2,20.8,29.98,North,355,0.0,0.0,80,0.00,,,0.00,meteohub,2013-03-24 12:05:00,
2013-03-24 08:11:00,26.2,20.8,29.98,North,355,0.0,0.0,80,0.00,,,0.00,meteohub,2013-03-24 12:11:00,
2013-03-24 08:17:00,26.4,20.5,29.98,North,355,0.0,0.0,78,0.00,,,0.00,meteohub,2013-03-24 12:17:00,
2013-03-24 08:22:00,26.8,21.7,29.98,North,355,0.0,0.0,81,0.00,,,0.00,meteohub,2013-03-24 12:22:00,
2013-03-24 08:27:00,27.0,21.6,29.98,North,355,0.0,0.0,80,0.00,,,0.00,meteohub,2013-03-24 12:27:00,
2013-03-24 08:32:00,27.1,21.6,29.97,North,355,0.0,0.0,79,0.00,,,0.00,meteohub,2013-03-24 12:32:00,
2013-03-24 08:38:00,27.5,21.9,29.97,North,351,0.0,0.0,79,0.00,,,0.00,meteohub,2013-03-24 12:38:00,
2013-03-24 08:44:00,27.7,22.1,29.97,North,351,0.0,1.0,79,0.00,,,0.00,meteohub,2013-03-24 12:44:00,
2013-03-24 08:51:00,27.7,21.7,29.96,North,351,0.0,1.0,78,0.00,,,0.00,meteohub,2013-03-24 12:51:00,
2013-03-24 08:57:00,28.0,22.5,29.96,North,350,0.0,1.0,79,0.00,,,0.00,meteohub,2013-03-24 12:57:00,
2013-03-24 09:02:00,28.2,22.3,29.96,NNW,346,0.0,1.0,78,0.00,,,0.00,meteohub,2013-03-24 13:02:00,
2013-03-24 09:07:00,28.4,22.5,29.95,NNW,344,0.0,1.0,78,0.00,,,0.00,meteohub,2013-03-24 13:07:00,
2013-03-24 09:12:00,28.6,22.3,29.95,NNW,334,0.0,1.0,77,0.00,,,0.00,meteohub,2013-03-24 13:12:00,
2013-03-24 09:18:00,28.9,22.6,29.94,NW,315,1.0,3.0,77,0.00,,,0.00,meteohub,2013-03-24 13:18:00,
2013-03-24 09:24:00,29.1,22.8,29.94,NNW,343,0.0,3.0,77,0.00,,,0.00,meteohub,2013-03-24 13:24:00,
2013-03-24 09:30:00,29.5,22.5,29.95,NNW,336,0.0,3.0,75,0.00,,,0.00,meteohub,2013-03-24 13:30:00,
2013-03-24 09:36:00,29.7,22.6,29.94,NNW,329,0.0,3.0,75,0.00,,,0.00,meteohub,2013-03-24 13:36:00,
2013-03-24 09:42:00,30.2,23.2,29.93,ESE,103,1.0,2.0,75,0.00,,,0.00,meteohub,2013-03-24 13:42:00,
2013-03-24 09:47:00,30.6,23.2,29.93,NW,326,0.0,3.0,74,0.00,,,0.00,meteohub,2013-03-24 13:47:00,
2013-03-24 09:52:00,30.7,23.2,29.92,East,98,0.0,3.0,73,0.00,,,0.00,meteohub,2013-03-24 13:52:00,
2013-03-24 09:57:00,31.3,23.4,29.92,NW,323,2.0,4.0,72,0.00,,,0.00,meteohub,2013-03-24 13:57:00,
2013-03-24 10:02:00,31.5,23.5,29.92,NW,313,0.0,4.0,72,0.00,,,0.00,meteohub,2013-03-24 14:02:00,
2013-03-24 10:07:00,31.6,23.4,29.92,NNW,327,0.0,4.0,71,0.00,,,0.00,meteohub,2013-03-24 14:07:00,
2013-03-24 10:13:00,32.0,23.4,29.92,NW,325,1.0,4.0,70,0.00,,,0.00,meteohub,2013-03-24 14:13:00,
2013-03-24 10:19:00,32.4,23.0,29.92,WNW,296,3.0,4.0,68,0.00,,,0.00,meteohub,2013-03-24 14:19:00,
2013-03-24 10:25:00,32.5,23.2,29.91,NNE,22,2.0,5.0,68,0.00,,,0.00,meteohub,2013-03-24 14:25:00,
2013-03-24 10:31:00,33.1,23.7,29.91,NNW,333,0.0,5.0,68,0.00,,,0.00,meteohub,2013-03-24 14:31:00,
2013-03-24 10:37:00,33.4,23.4,29.91,NNW,329,0.0,6.0,66,0.00,,,0.00,meteohub,2013-03-24 14:37:00,
2013-03-24 10:44:00,33.8,23.0,29.90,NNW,340,1.0,6.0,64,0.00,,,0.00,meteohub,2013-03-24 14:44:00,
2013-03-24 10:50:00,34.2,22.8,29.90,NNW,331,2.0,6.0,63,0.00,,,0.00,meteohub,2013-03-24 14:50:00,
2013-03-24 10:56:00,34.5,23.5,29.90,North,349,1.0,4.0,64,0.00,,,0.00,meteohub,2013-03-24 14:56:00,
2013-03-24 11:02:00,34.5,22.5,29.90,NNW,338,3.0,4.0,61,0.00,,,0.00,meteohub,2013-03-24 15:02:00,
2013-03-24 11:08:00,34.7,22.6,29.89,NNW,327,0.0,5.0,61,0.00,,,0.00,meteohub,2013-03-24 15:08:00,
2013-03-24 11:14:00,35.1,22.6,29.89,NNW,329,3.0,5.0,60,0.00,,,0.00,meteohub,2013-03-24 15:14:00,
2013-03-24 11:20:00,35.2,23.2,29.89,NW,319,2.0,5.0,61,0.00,,,0.00,meteohub,2013-03-24 15:20:00,
2013-03-24 11:26:00,35.4,23.0,29.89,North,355,0.0,4.0,60,0.00,,,0.00,meteohub,2013-03-24 15:26:00,
2013-03-24 11:32:00,35.6,23.0,29.89,ESE,109,0.0,4.0,60,0.00,,,0.00,meteohub,2013-03-24 15:32:00,
2013-03-24 11:37:00,35.8,22.8,29.89,NNW,337,1.0,3.0,59,0.00,,,0.00,meteohub,2013-03-24 15:37:00,
2013-03-24 11:42:00,35.8,22.5,29.89,NW,323,0.0,3.0,58,0.00,,,0.00,meteohub,2013-03-24 15:42:00,
2013-03-24 11:47:00,35.8,23.2,29.89,NW,313,1.0,3.0,60,0.00,,,0.00,meteohub,2013-03-24 15:47:00,
2013-03-24 11:54:00,36.0,21.7,29.88,NW,313,0.0,3.0,56,0.00,,,0.00,meteohub,2013-03-24 15:54:00,
2013-03-24 12:00:00,36.7,22.1,29.88,North,9,0.0,2.0,55,0.00,,,0.00,meteohub,2013-03-24 16:00:00,
2013-03-24 12:06:00,36.9,21.7,29.87,SSE,150,2.0,4.0,54,0.00,,,0.00,meteohub,2013-03-24 16:06:00,
2013-03-24 12:12:00,37.0,21.9,29.87,SE,137,0.0,4.0,54,0.00,,,0.00,meteohub,2013-03-24 16:12:00,
2013-03-24 12:18:00,37.0,21.6,29.86,SE,125,0.0,3.0,53,0.00,,,0.00,meteohub,2013-03-24 16:18:00,
2013-03-24 12:24:00,36.9,21.7,29.85,West,276,1.0,3.0,54,0.00,,,0.00,meteohub,2013-03-24 16:24:00,
2013-03-24 12:30:00,37.2,22.5,29.85,NNW,333,0.0,3.0,55,0.00,,,0.00,meteohub,2013-03-24 16:30:00,
2013-03-24 12:36:00,37.8,23.0,29.84,North,355,1.0,2.0,55,0.00,,,0.00,meteohub,2013-03-24 16:36:00,
2013-03-24 12:42:00,38.1,23.9,29.84,South,181,2.0,3.0,56,0.00,,,0.00,meteohub,2013-03-24 16:42:00,
2013-03-24 12:48:00,38.5,22.5,29.83,SE,146,1.0,3.0,52,0.00,,,0.00,meteohub,2013-03-24 16:48:00,
2013-03-24 12:54:00,38.5,21.9,29.83,NW,306,0.0,3.0,51,0.00,,,0.00,meteohub,2013-03-24 16:54:00,
2013-03-24 13:00:00,38.8,22.3,29.83,South,190,0.0,3.0,51,0.00,,,0.00,meteohub,2013-03-24 17:00:00,
2013-03-24 13:07:00,39.0,22.5,29.82,SSE,157,0.0,3.0,51,0.00,,,0.00,meteohub,2013-03-24 17:07:00,
2013-03-24 13:12:00,38.8,22.6,29.82,West,272,0.0,3.0,52,0.00,,,0.00,meteohub,2013-03-24 17:12:00,
2013-03-24 13:19:00,38.8,21.7,29.81,SW,223,1.0,3.0,50,0.00,,,0.00,meteohub,2013-03-24 17:19:00,
2013-03-24 13:25:00,38.7,22.1,29.80,South,191,0.0,3.0,51,0.00,,,0.00,meteohub,2013-03-24 17:25:00,
2013-03-24 13:31:00,38.7,22.1,29.79,WSW,252,2.0,3.0,51,0.00,,,0.00,meteohub,2013-03-24 17:31:00,
2013-03-24 13:37:00,38.7,21.2,29.78,SE,142,2.0,3.0,49,0.00,,,0.00,meteohub,2013-03-24 17:37:00,
2013-03-24 13:42:00,38.7,21.6,29.78,WNW,288,1.0,5.0,50,0.00,,,0.00,meteohub,2013-03-24 17:42:00,
2013-03-24 13:47:00,38.7,21.2,29.78,NW,317,1.0,5.0,49,0.00,,,0.00,meteohub,2013-03-24 17:47:00,
2013-03-24 13:52:00,38.8,20.3,29.78,SSE,155,2.0,5.0,47,0.00,,,0.00,meteohub,2013-03-24 17:52:00,
2013-03-24 13:57:00,39.0,21.0,29.77,ENE,73,2.0,5.0,48,0.00,,,0.00,meteohub,2013-03-24 17:57:00,
2013-03-24 14:02:00,39.4,21.7,29.77,SE,127,1.0,5.0,49,0.00,,,0.00,meteohub,2013-03-24 18:02:00,
2013-03-24 14:08:00,39.6,21.0,29.76,WNW,296,2.0,5.0,47,0.00,,,0.00,meteohub,2013-03-24 18:08:00,
2013-03-24 14:14:00,39.7,21.7,29.75,SSE,159,1.0,4.0,48,0.00,,,0.00,meteohub,2013-03-24 18:14:00,
2013-03-24 14:20:00,40.3,21.7,29.75,WNW,295,1.0,4.0,47,0.00,,,0.00,meteohub,2013-03-24 18:20:00,
2013-03-24 14:27:00,41.0,21.7,29.75,ESE,114,0.0,4.0,46,0.00,,,0.00,meteohub,2013-03-24 18:27:00,
2013-03-24 14:32:00,41.7,22.5,29.75,SW,232,0.0,3.0,46,0.00,,,0.00,meteohub,2013-03-24 18:32:00,
2013-03-24 14:37:00,42.4,23.2,29.75,SW,224,1.0,3.0,46,0.00,,,0.00,meteohub,2013-03-24 18:37:00,
2013-03-24 14:42:00,42.6,22.3,29.75,ENE,74,1.0,4.0,44,0.00,,,0.00,meteohub,2013-03-24 18:42:00,
2013-03-24 14:48:00,42.3,21.9,29.75,SE,144,1.0,5.0,44,0.00,,,0.00,meteohub,2013-03-24 18:48:00,
2013-03-24 14:54:00,41.5,20.7,29.75,SSE,155,1.0,5.0,43,0.00,,,0.00,meteohub,2013-03-24 18:54:00,
2013-03-24 15:00:00,40.6,20.5,29.75,ESE,123,0.0,5.0,44,0.00,,,0.00,meteohub,2013-03-24 19:00:00,
2013-03-24 15:06:00,39.9,20.3,29.74,East,100,1.0,5.0,45,0.00,,,0.00,meteohub,2013-03-24 19:06:00,
2013-03-24 15:12:00,39.7,21.2,29.75,WSW,246,0.0,5.0,47,0.00,,,0.00,meteohub,2013-03-24 19:12:00,
2013-03-24 15:17:00,39.7,20.7,29.75,SSE,158,0.0,5.0,46,0.00,,,0.00,meteohub,2013-03-24 19:17:00,
2013-03-24 15:24:00,39.6,20.5,29.75,SE,139,1.0,4.0,46,0.00,,,0.00,meteohub,2013-03-24 19:24:00,
2013-03-24 15:30:00,39.4,20.3,29.74,ESE,112,2.0,3.0,46,0.00,,,0.00,meteohub,2013-03-24 19:30:00,
2013-03-24 15:37:00,39.4,20.8,29.74,ESE,113,0.0,3.0,47,0.00,,,0.00,meteohub,2013-03-24 19:37:00,
2013-03-24 15:43:00,39.2,20.7,29.74,West,267,0.0,2.0,47,0.00,,,0.00,meteohub,2013-03-24 19:43:00,
2013-03-24 15:49:00,39.0,20.5,29.74,SSW,197,0.0,2.0,47,0.00,,,0.00,meteohub,2013-03-24 19:49:00,
2013-03-24 15:55:00,38.8,20.3,29.74,SE,142,0.0,2.0,47,0.00,,,0.00,meteohub,2013-03-24 19:55:00,
2013-03-24 16:01:00,38.7,20.7,29.74,SW,221,0.0,2.0,48,0.00,,,0.00,meteohub,2013-03-24 20:01:00,
2013-03-24 16:07:00,38.5,20.5,29.74,SSE,147,1.0,4.0,48,0.00,,,0.00,meteohub,2013-03-24 20:07:00,
2013-03-24 16:13:00,38.3,20.8,29.73,SE,140,0.0,4.0,49,0.00,,,0.00,meteohub,2013-03-24 20:13:00,
2013-03-24 16:20:00,38.1,21.2,29.73,NE,49,1.0,4.0,50,0.00,,,0.00,meteohub,2013-03-24 20:20:00,
2013-03-24 16:26:00,37.8,21.7,29.73,SSE,163,0.0,3.0,52,0.00,,,0.00,meteohub,2013-03-24 20:26:00,
2013-03-24 16:32:00,37.2,23.0,29.73,NNW,336,1.0,3.0,56,0.00,,,0.00,meteohub,2013-03-24 20:32:00,
2013-03-24 16:37:00,36.9,23.5,29.73,NNW,333,0.0,3.0,58,0.00,,,0.00,meteohub,2013-03-24 20:37:00,
2013-03-24 16:42:00,36.9,23.5,29.72,NNW,333,0.0,3.0,58,0.00,,,0.00,meteohub,2013-03-24 20:42:00,
2013-03-24 16:47:00,36.7,22.8,29.72,SSE,159,1.0,3.0,57,0.00,,,0.00,meteohub,2013-03-24 20:47:00,
2013-03-24 16:52:00,36.3,24.1,29.72,SE,130,1.0,3.0,61,0.00,,,0.00,meteohub,2013-03-24 20:52:00,
2013-03-24 16:59:00,35.8,25.2,29.71,ESE,116,0.0,3.0,65,0.00,,,0.00,meteohub,2013-03-24 20:59:00,
2013-03-24 17:05:00,35.2,26.1,29.71,North,5,0.0,4.0,69,0.00,,,0.00,meteohub,2013-03-24 21:05:00,
2013-03-24 17:11:00,35.1,25.5,29.71,NNW,338,0.0,4.0,68,0.00,,,0.00,meteohub,2013-03-24 21:11:00,
2013-03-24 17:17:00,34.9,26.4,29.71,NNW,338,0.0,3.0,71,0.00,,,0.00,meteohub,2013-03-24 21:17:00,
2013-03-24 17:22:00,34.7,26.2,29.71,NNW,335,0.0,3.0,71,0.00,,,0.00,meteohub,2013-03-24 21:22:00,
2013-03-24 17:27:00,34.5,26.4,29.72,NNW,335,2.0,3.0,72,0.00,,,0.00,meteohub,2013-03-24 21:27:00,
2013-03-24 17:33:00,34.3,27.0,29.72,NNW,329,0.0,3.0,74,0.00,,,0.00,meteohub,2013-03-24 21:33:00,
2013-03-24 17:39:00,34.2,26.8,29.72,NNW,329,0.0,3.0,74,0.00,,,0.00,meteohub,2013-03-24 21:39:00,
2013-03-24 17:45:00,34.0,27.0,29.72,NNW,329,0.0,3.0,75,0.00,,,0.00,meteohub,2013-03-24 21:45:00,
2013-03-24 17:51:00,33.8,27.0,29.72,NNW,329,0.0,0.0,76,0.00,,,0.00,meteohub,2013-03-24 21:51:00,
2013-03-24 17:57:00,33.6,27.5,29.72,NNW,329,0.0,0.0,78,0.00,,,0.00,meteohub,2013-03-24 21:57:00,
2013-03-24 18:02:00,33.4,27.7,29.72,NNW,329,0.0,0.0,79,0.00,,,0.00,meteohub,2013-03-24 22:02:00,
2013-03-24 18:09:00,33.3,28.0,29.72,NNW,329,0.0,0.0,81,0.00,,,0.00,meteohub,2013-03-24 22:09:00,
2013-03-24 18:15:00,33.1,28.2,29.72,NNW,329,0.0,0.0,82,0.00,,,0.00,meteohub,2013-03-24 22:15:00,
2013-03-24 18:21:00,32.7,28.4,29.72,NNW,329,0.0,0.0,84,0.00,,,0.00,meteohub,2013-03-24 22:21:00,
2013-03-24 18:27:00,32.5,28.8,29.72,NNW,329,0.0,0.0,86,0.00,,,0.00,meteohub,2013-03-24 22:27:00,
2013-03-24 18:32:00,32.4,28.9,29.72,NNW,329,0.0,0.0,87,0.00,,,0.00,meteohub,2013-03-24 22:32:00,
2013-03-24 18:37:00,32.2,28.8,29.71,NNW,329,0.0,0.0,87,0.00,,,0.00,meteohub,2013-03-24 22:37:00,
2013-03-24 18:42:00,32.2,28.9,29.71,NNW,329,0.0,0.0,88,0.00,,,0.00,meteohub,2013-03-24 22:42:00,
2013-03-24 18:47:00,32.2,29.3,29.71,NNW,329,0.0,0.0,89,0.00,,,0.00,meteohub,2013-03-24 22:47:00,
2013-03-24 18:52:00,32.0,29.1,29.71,NNW,329,0.0,0.0,89,0.00,,,0.00,meteohub,2013-03-24 22:52:00,
2013-03-24 18:58:00,31.8,28.9,29.71,NNW,329,0.0,0.0,89,0.00,,,0.00,meteohub,2013-03-24 22:58:00,
2013-03-24 19:04:00,31.8,29.3,29.72,NNW,329,0.0,0.0,90,0.00,,,0.00,meteohub,2013-03-24 23:04:00,
2013-03-24 19:10:00,31.6,29.1,29.72,NNW,329,0.0,0.0,90,0.00,,,0.00,meteohub,2013-03-24 23:10:00,
2013-03-24 19:16:00,31.6,29.3,29.71,NNW,329,0.0,0.0,91,0.00,,,0.00,meteohub,2013-03-24 23:16:00,
2013-03-24 19:22:00,31.5,29.1,29.71,NNW,331,0.0,0.0,91,0.00,,,0.00,meteohub,2013-03-24 23:22:00,
2013-03-24 19:27:00,31.5,29.5,29.71,NNW,331,0.0,0.0,92,0.00,,,0.00,meteohub,2013-03-24 23:27:00,
2013-03-24 19:32:00,31.5,29.1,29.71,NNW,331,0.0,0.0,91,0.00,,,0.00,meteohub,2013-03-24 23:32:00,
2013-03-24 19:37:00,31.3,28.9,29.71,NW,317,0.0,0.0,91,0.00,,,0.00,meteohub,2013-03-24 23:37:00,
2013-03-24 19:42:00,31.3,28.9,29.71,NW,317,0.0,0.0,91,0.00,,,0.00,meteohub,2013-03-24 23:42:00,
2013-03-24 19:47:00,31.3,28.9,29.71,NW,317,0.0,0.0,91,0.00,,,0.00,meteohub,2013-03-24 23:47:00,
2013-03-24 19:53:00,31.1,28.8,29.70,NW,323,0.0,0.0,91,0.00,,,0.00,meteohub,2013-03-24 23:53:00,
2013-03-24 19:59:00,31.1,28.8,29.70,NW,307,0.0,1.0,91,0.00,,,0.00,meteohub,2013-03-24 23:59:00,
2013-03-24 20:05:00,31.1,28.6,29.70,WNW,303,0.0,2.0,90,0.00,,,0.00,meteohub,2013-03-25 00:05:00,
2013-03-24 20:12:00,31.1,28.6,29.70,WNW,303,0.0,2.0,90,0.00,,,0.00,meteohub,2013-03-25 00:12:00,
2013-03-24 20:17:00,31.3,28.9,29.71,WNW,303,0.0,2.0,91,0.00,,,0.00,meteohub,2013-03-25 00:17:00,
2013-03-24 20:22:00,31.1,28.6,29.70,West,277,0.0,1.0,90,0.00,,,0.00,meteohub,2013-03-25 00:22:00,
2013-03-24 20:27:00,31.1,28.8,29.70,West,277,0.0,1.0,91,0.00,,,0.00,meteohub,2013-03-25 00:27:00,
2013-03-24 20:32:00,31.1,28.8,29.70,West,277,0.0,1.0,91,0.00,,,0.00,meteohub,2013-03-25 00:32:00,
2013-03-24 20:39:00,31.3,28.9,29.69,West,277,0.0,1.0,91,0.00,,,0.00,meteohub,2013-03-25 00:39:00,
2013-03-24 20:45:00,31.1,28.8,29.68,NW,318,0.0,1.0,91,0.00,,,0.00,meteohub,2013-03-25 00:45:00,
2013-03-24 20:51:00,31.1,28.8,29.68,NW,318,0.0,1.0,91,0.00,,,0.00,meteohub,2013-03-25 00:51:00,
2013-03-24 20:57:00,31.1,28.8,29.68,NW,318,0.0,1.0,91,0.00,,,0.00,meteohub,2013-03-25 00:57:00,
2013-03-24 21:02:00,30.9,28.9,29.68,NW,325,0.0,2.0,92,0.00,,,0.00,meteohub,2013-03-25 01:02:00,
2013-03-24 21:07:00,30.9,28.9,29.69,NNW,327,1.0,2.0,92,0.00,,,0.00,meteohub,2013-03-25 01:07:00,
2013-03-24 21:12:00,30.9,28.9,29.69,NNW,329,0.0,2.0,92,0.00,,,0.00,meteohub,2013-03-25 01:12:00,
2013-03-24 21:17:00,30.7,28.9,29.69,NNW,329,0.0,3.0,93,0.00,,,0.00,meteohub,2013-03-25 01:17:00,
2013-03-24 21:22:00,30.7,28.9,29.70,NNW,329,1.0,3.0,93,0.00,,,0.00,meteohub,2013-03-25 01:22:00,
2013-03-24 21:28:00,30.7,28.9,29.69,South,173,1.0,3.0,93,0.00,,,0.00,meteohub,2013-03-25 01:28:00,
2013-03-24 21:34:00,30.6,28.8,29.69,NW,305,0.0,4.0,93,0.00,,,0.00,meteohub,2013-03-25 01:34:00,
2013-03-24 21:40:00,30.6,28.8,29.69,NW,305,0.0,4.0,93,0.00,,,0.00,meteohub,2013-03-25 01:40:00,
2013-03-24 21:46:00,30.6,28.8,29.69,NW,305,0.0,1.0,93,0.00,,,0.00,meteohub,2013-03-25 01:46:00,
2013-03-24 21:52:00,30.6,28.8,29.69,NW,305,1.0,1.0,93,0.00,,,0.00,meteohub,2013-03-25 01:52:00,
2013-03-24 21:57:00,30.6,29.1,29.69,NW,305,0.0,2.0,94,0.00,,,0.00,meteohub,2013-03-25 01:57:00,
2013-03-24 22:02:00,30.6,29.1,29.69,NW,305,0.0,2.0,94,0.00,,,0.00,meteohub,2013-03-25 02:02:00,
2013-03-24 22:07:00,30.6,29.1,29.69,NNW,337,1.0,1.0,94,0.00,,,0.00,meteohub,2013-03-25 02:07:00,
2013-03-24 22:12:00,30.6,29.1,29.69,NNW,337,0.0,4.0,94,0.00,,,0.00,meteohub,2013-03-25 02:12:00,
2013-03-24 22:17:00,30.6,29.1,29.68,NNW,329,3.0,4.0,94,0.00,,,0.00,meteohub,2013-03-25 02:17:00,
2013-03-24 22:22:00,30.6,29.1,29.68,NNW,329,0.0,4.0,94,0.00,,,0.00,meteohub,2013-03-25 02:22:00,
2013-03-24 22:29:00,30.4,28.9,29.67,NW,321,0.0,4.0,94,0.00,,,0.00,meteohub,2013-03-25 02:29:00,
2013-03-24 22:35:00,30.6,29.1,29.67,North,0,0.0,4.0,94,0.00,,,0.00,meteohub,2013-03-25 02:35:00,
2013-03-24 22:41:00,30.4,28.9,29.67,NNW,337,1.0,2.0,94,0.00,,,0.00,meteohub,2013-03-25 02:41:00,
2013-03-24 22:47:00,30.4,28.9,29.68,NNW,333,0.0,2.0,94,0.00,,,0.00,meteohub,2013-03-25 02:47:00,
2013-03-24 22:52:00,30.4,28.9,29.67,West,267,0.0,3.0,94,0.00,,,0.00,meteohub,2013-03-25 02:52:00,
2013-03-24 22:57:00,30.4,28.9,29.67,NNW,336,0.0,3.0,94,0.00,,,0.00,meteohub,2013-03-25 02:57:00,
2013-03-24 23:02:00,30.4,28.9,29.67,NNW,336,0.0,3.0,94,0.00,,,0.00,meteohub,2013-03-25 03:02:00,
2013-03-24 23:08:00,30.4,28.9,29.66,NNW,336,0.0,3.0,94,0.00,,,0.00,meteohub,2013-03-25 03:08:00,
2013-03-24 23:14:00,30.6,29.1,29.65,West,259,0.0,2.0,94,0.00,,,0.00,meteohub,2013-03-25 03:14:00,
2013-03-24 23:20:00,30.6,29.1,29.65,WNW,292,0.0,3.0,94,0.00,,,0.00,meteohub,2013-03-25 03:20:00,
2013-03-24 23:26:00,30.6,29.1,29.64,WNW,299,2.0,3.0,94,0.00,,,0.00,meteohub,2013-03-25 03:26:00,
2013-03-24 23:32:00,30.6,29.1,29.64,NNW,329,0.0,4.0,94,0.00,,,0.00,meteohub,2013-03-25 03:32:00,
2013-03-24 23:38:00,30.6,29.1,29.64,SE,138,0.0,4.0,94,0.00,,,0.00,meteohub,2013-03-25 03:38:00,
2013-03-24 23:44:00,30.6,28.8,29.64,NNW,330,0.0,4.0,93,0.00,,,0.00,meteohub,2013-03-25 03:44:00,
2013-03-24 23:51:00,30.6,28.8,29.63,NNW,339,1.0,4.0,93,0.00,,,0.00,meteohub,2013-03-25 03:51:00,
2013-03-24 23:57:00,30.6,28.8,29.63,NNW,336,0.0,4.0,93,0.00,,,0.00,meteohub,2013-03-25 03:57:00,